SCP
0 0 0 0 0 0 0 0 0 0 0 0 0 0 0 0 0 0 0 0 0 0 0 0 0 0 0 0 0 0 0 0 0 0 0 0 0 0 0 0 0 0 0
0 0 0 0 0 0 0 0 0 0 0 0 0 0 0 0 0 0 0 0 0 0 0 0 0 0 0 0 0 0 0 0 0 0 0 0 0 0 0 0 0 0 0
0 0 0 0 0 0 0 0 0 0 0 0 0 0 0 0 0 0 0 0 0 0 0 0 0 0 0 0 0 0 0 0 0 0 0 0 0 0 0 0 0 0 0
0 0 0 0 0 0 0 0 0 0 0 0 0 0 0 0 0 0 0 0 0 0 0 0 0 0 0 0 0 0 0 0 0 0 0 0 0 0 0 0 0 0 0
0 0 0 0 0 0 0 0 0 0 0 0 0 0 0 0 0 0 0 0 0 0 0 0 0 0 0 0 0 0 0 0 0 0 0 0 0 0 0 0 0 0 0
0 0 0 0 0 0 0 0 0 0 0 0 0 0 0 0 0 0 0 0 0 0 0 0 0 0 0 0 0 0 0 0 0 0 0 0 0 0 0 0 0 0 0
0 0 0 0 0 0 0 0 0 0 0 0 0 0 0 0 0 0 0 0 0 0 0 0 0 0 0 0 0 0 0 0 0 0 0 0 0 0 0 0 0 0 0
0 0 0 0 0 0 0 0 0 0 0 0 0 0 0 0 0 0 0 0 0 0 0 0 0 0 0 0 0 0 0 0 0 0 0 0 0 0 0 0 0 0 0
0 0 0 0 0 0 0 0 0 0 0 0 0 0 0 0 0 0 0 0 0 0 0 0 0 0 0 0 0 0 0 0 0 0 0 0 0 0 0 0 0 0 0
0 0 0 0 0 0 0 0 0 0 0 0 0 0 0 0 0 0 0 0 0 0 0 0 0 0 0 0 0 0 0 0 0 0 0 0 0 0 0 0 0 0 0
0 0 0 0 0 0 0 0 0 0 0 0 0 0 0 0 0 0 0 0 0 0 0 0 0 0 0 0 0 0 0 0 0 0 0 0 0 0 0 0 0 0 0
0 0 0 0 0 0 0 0 0 0 0 0 0 0 0 0 0 0 0 0 0 0 0 0 0 0 0 0 0 0 0 0 0 0 0 0 0 0 0 0 0 0 0
0 0 0 0 0 0 0 0 0 0 0 0 0 0 0 0 0 -0 0 0 0 0 0 0 0 0 0 0 0 0 0 0 0 0 0 0 0 0 0 0 0 0 0
0 0 0 0 0 0 0 0 0 0 0 0 0 0 0 0 0 0 0 0 0 0 0 0 0 0 0 0 0 0 0 0 0 0 0 0 0 0 0 0 0 0 0
0 0 0 0 0 0 0 0 0 0 0 0 0 0 0 0 0 0 0 0 0 0 0 0 0 0 0 0 0 0 0 0 0 0 0 0 0 0 0 0 0 0 0
0 0 0 0 0 0 0 0 0 0 0 0 0 0 0 0 0 0 0 0 0 0 0 0 0 0 0 0 0 0 0 0 0 0 0 0 0 0 0 0 0 0 0
0 0 0 0 0 0 0 0 0 0 0 0 0 0 0 0 0 0 0 0 0 0 0 0 0 0 0 0 0 0 0 0 0 0 0 0 0 0 0 0 0 0 0
0 0 0 0 0 0 0 0 0 0 0 0 0 0 0 0 0 0 0 0 0 0 0 0 0 0 0 0 0 0 0 0 0 0 0 0 0 0 0 0 0 0 0
0 0 0 0 0 0 0 0 0 0 0 0 0 0 0 0 0 0 0 0 0 0 0 0 0 0 0 0 0 0 0 0 0 0 0 0 0 0 0 0 0 0 0
0 0 0 0 0 0 0 0 0 0 0 0 0 0 0 0 0 0 0 0 0 0 0 0 0 0 0 0 0 0 0 0 0 0 0 0 0 0 0 0 0 0 0
0 0 0 0 0 0 0 0 0 0 0 0 0 0 0 0 0 0 0 0 0 0 0 0 0 0 0 0 0 0 0 0 0 0 0 0 0 0 0 0 0 0 0
0 0 0 0 0 0 0 0 0 0 0 0 0 0 0 0 0 0 0 0 0 0 0 0 0 0 0 0 0 0 0 0 0 0 0 0 0 0 0 0 0 0 0
0 0 0 0 0 0 0 0 0 0 0 0 0 0 0 0 0 0 0 0 0 0 0 0 0 0 0 0 0 0 0 0 0 0 0 0 0 0 0 0 0 0 0
0 0 0 0 0 0 0 0 0 0 0 0 0 0 0 0 0 0 0 0 0 0 0 0 0 0 0 0 0 0 0 0 0 0 0 0 0 0 0 0 0 0 0
0 0 0 0 0 0 0 0 0 0 0 0 0 0 0 0 0 0 0 0 0 0 0 0 0 0 0 0 0 0 0 0 0 0 0 0 0 0 0 0 0 0 0
0 0 0 0 0 0 0 0 0 0 0 0 0 0 0 0 0 0 0 0 0 0 0 0 0 0 0 0 0 0 0 0 0 0 0 0 0 0 0 0 0 0 0
Wind_Speed
2 2 2 2 2 2 2 2 3 3 3 4 4 5 4 4 4 3 3 9 10 10 10 10 10 10 11 11 10 10 10 10 10 10 10 10 9 9 9 8 7 8 7
3 2 2 2 2 2 2 2 3 3 3 3 4 4 4 4 4 4 3 5 9 10 10 10 10 9 10 10 10 10 10 10 10 10 10 10 9 9 9 9 9 8 8
4 3 3 3 2 2 3 3 4 3 4 4 4 4 4 3 3 3 3 3 4 8 10 10 10 9 9 9 9 9 9 9 9 9 10 10 9 9 9 9 9 9 8
4 4 3 3 2 3 3 3 3 3 3 3 3 3 3 3 4 3 3 3 3 3 6 9 10 10 9 9 9 9 9 9 9 9 9 8 9 9 9 8 8 9 9
4 4 3 3 3 3 3 3 3 3 3 3 2 3 3 3 3 4 3 3 3 3 3 6 8 9 9 8 8 8 9 9 8 8 8 8 8 8 8 8 8 8 8
4 4 3 3 3 3 3 3 3 3 2 2 3 4 3 3 3 3 3 2 3 3 3 4 4 6 8 8 8 8 9 8 8 8 8 7 7 7 7 7 7 6 6
4 4 3 3 3 3 3 3 3 3 3 2 3 3 4 4 4 3 3 3 3 3 4 4 3 3 4 8 8 8 8 8 8 8 8 8 7 7 6 6 6 6 6
3 4 4 3 3 3 3 3 3 2 1 1 2 3 2 4 4 4 3 3 3 2 3 4 4 4 3 3 6 9 8 8 7 7 7 7 7 6 6 6 5 5 5
3 4 4 4 3 3 3 2 2 3 2 0 1 3 3 1 1 2 2 2 2 2 2 2 3 3 3 3 3 6 8 8 7 6 6 6 5 5 5 5 5 5 4
3 4 4 4 3 3 3 2 2 2 3 1 0 1 2 3 3 0 2 2 2 2 1 2 2 2 2 2 4 6 7 7 7 6 6 5 5 5 5 5 5 5 4
2 3 4 3 3 2 3 2 2 2 2 2 1 1 1 1 2 3 0 2 2 2 1 1 1 1 1 2 1 3 6 6 6 6 6 5 5 5 5 5 5 4 4
1 2 3 3 3 3 3 3 3 2 2 2 2 2 2 2 2 2 2 1 1 2 1 1 1 1 1 1 1 4 4 4 4 5 5 5 5 4 4 4 4 4 4
1 2 3 3 3 3 3 3 3 2 2 2 2 1 1 1 2 3 3 2 0 1 1 1 1 0 0 0 0 2 2 2 2 2 2 3 3 3 3 4 4 4 4
3 3 3 3 3 3 3 3 2 2 2 2 2 2 1 1 2 3 3 3 1 1 1 2 1 1 0 1 1 1 1 1 1 0 0 1 1 2 3 3 4 4 4
2 3 3 3 2 3 3 3 2 2 2 2 2 2 2 1 1 2 2 3 4 2 2 2 1 1 1 1 1 1 1 2 2 2 2 2 2 2 2 3 4 4 4
2 3 3 3 2 2 2 3 2 2 2 2 2 3 2 1 1 1 2 2 2 4 2 3 2 2 1 1 2 2 3 3 3 3 3 3 3 3 4 4 4 4 4
3 4 4 4 4 3 2 2 2 3 3 2 2 3 2 2 2 1 1 1 2 3 2 2 1 1 1 1 1 1 2 2 2 4 4 5 5 5 5 5 5 5 4
3 4 4 4 4 4 3 3 3 3 4 3 3 3 2 2 2 1 2 2 2 2 3 2 1 0 1 2 1 1 1 1 2 4 5 5 6 6 6 6 6 5 5
2 3 3 4 4 4 4 4 4 3 4 4 4 4 4 3 3 2 2 2 2 1 2 2 2 1 1 1 0 1 1 1 2 3 4 5 6 6 7 6 6 6 6
3 3 3 4 4 4 4 4 3 3 3 3 4 4 4 4 5 4 3 3 3 2 2 2 1 1 1 1 0 1 2 2 2 2 2 3 4 6 6 6 6 5 4
3 3 3 3 3 3 3 3 4 4 3 3 2 3 4 5 6 5 4 4 3 2 2 2 1 1 1 1 2 2 2 2 3 2 1 2 2 2 3 5 5 5 4
2 2 3 3 3 3 4 5 4 3 3 4 3 2 3 4 5 5 5 6 6 5 4 3 3 3 4 3 2 2 1 0 2 2 0 2 1 2 3 2 4 5 4
3 3 3 3 3 4 5 5 5 3 4 4 4 3 2 2 3 3 3 4 5 6 7 6 5 5 5 5 3 2 3 3 4 3 1 2 2 2 3 3 5 5 4
3 3 3 3 3 4 5 5 5 3 3 3 4 4 4 3 4 4 3 2 3 4 6 5 5 6 5 5 6 5 4 2 2 1 2 2 2 2 3 2 4 4 4
3 3 3 3 4 4 5 6 5 3 3 3 4 4 4 4 6 6 4 3 3 4 5 6 6 6 6 6 4 2 2 1 2 2 1 2 2 2 2 2 3 4 4
3 3 2 3 4 4 5 6 6 3 3 3 2 3 5 5 6 6 5 5 5 5 3 3 3 4 4 5 6 5 4 3 2 2 2 2 1 0 2 2 1 2 2
Wind_Direction
126 110 103 91 82 83 83 77 73 73 74 75 77 79 75 69 65 54 52 72 75 76 77 77 78 77 81 88 92 92 88 86 85 85 82 82 83 82 78 73 76 77 75
123 109 102 90 84 88 87 85 83 81 76 77 73 75 77 76 73 63 52 61 69 70 73 76 77 79 84 88 90 89 88 86 86 84 81 80 81 83 79 75 72 70 69
121 110 103 96 94 97 91 82 74 73 76 71 63 62 70 73 76 71 62 52 50 58 65 69 72 76 83 89 90 88 87 87 84 82 81 78 77 80 78 75 71 68 66
118 113 108 98 96 93 89 87 75 72 65 67 64 55 57 64 73 77 69 57 49 48 55 64 67 71 80 87 88 87 88 88 82 81 80 78 75 74 73 72 72 69 66
111 115 113 111 105 92 86 93 79 87 86 77 76 63 49 54 56 72 71 68 61 54 47 57 60 63 74 82 86 85 85 86 84 84 81 78 75 72 71 69 68 69 65
115 113 114 114 109 97 83 85 91 76 86 87 81 63 45 47 48 61 67 71 67 65 58 52 46 47 61 72 80 84 84 82 81 81 80 78 75 73 73 71 69 68 65
117 117 119 115 109 109 112 106 102 84 69 82 78 51 29 36 48 45 46 60 56 56 65 60 52 44 46 60 67 78 78 78 79 79 77 74 72 72 70 68 64 64 63
129 127 125 127 122 114 105 103 108 106 94 77 100 87 35 9 12 28 37 57 49 50 60 65 60 61 53 45 60 71 73 73 75 77 76 73 70 68 64 62 60 59 60
128 128 133 133 131 129 134 133 131 131 149 295 93 126 128 187 313 348 17 38 42 54 56 66 71 66 68 57 48 59 69 70 72 73 72 71 67 62 58 56 53 51 53
131 135 139 140 145 142 145 155 142 137 140 160 9 86 139 152 146 345 341 359 22 47 51 75 73 64 64 64 65 71 71 68 70 69 66 65 62 56 50 46 42 38 40
142 147 146 148 154 154 161 153 138 137 140 146 150 131 100 87 109 132 189 330 353 348 20 79 84 73 69 68 64 77 77 72 68 66 63 59 55 51 43 40 36 36 36
163 165 154 155 161 163 169 168 156 147 144 136 131 129 140 142 158 139 152 202 299 315 345 17 82 106 90 70 86 89 93 82 75 67 60 53 47 42 37 32 27 25 24
182 192 170 171 173 178 172 161 153 156 154 144 145 144 146 161 155 144 138 156 178 295 338 334 299 158 139 87 86 104 113 102 89 77 66 54 43 32 22 16 12 9 8
193 188 175 174 180 179 169 156 147 166 157 152 149 148 138 154 142 149 152 145 120 338 317 276 301 261 255 212 228 135 160 154 142 129 73 43 22 8 1 358 353 349 348
186 175 165 162 165 165 165 154 148 167 157 162 161 153 146 159 145 152 149 152 149 163 243 250 256 265 257 212 215 201 249 231 229 235 236 243 266 296 315 325 330 330 328
180 166 166 162 156 157 159 152 156 165 141 157 164 150 152 165 154 142 148 149 148 154 197 234 230 237 229 217 211 221 239 240 242 246 243 248 259 271 282 293 300 305 304
182 181 182 177 172 173 173 167 174 164 158 167 166 161 174 169 153 153 147 142 141 142 167 248 250 245 195 228 277 272 253 257 264 253 249 249 256 266 272 280 285 285 288
197 192 183 186 190 192 192 188 195 186 177 181 185 170 187 173 163 166 159 167 170 159 152 186 244 250 240 232 238 251 258 254 262 259 259 256 258 264 270 275 278 277 274
205 195 177 187 198 201 202 204 199 198 195 195 191 185 193 174 191 197 182 185 188 161 141 158 205 225 260 259 313 289 288 304 282 270 273 271 269 273 274 275 277 277 267
197 196 192 195 202 204 199 199 191 191 189 195 201 200 198 193 199 198 194 194 184 164 158 158 186 219 240 267 145 263 302 295 284 286 292 287 285 285 279 276 278 277 258
201 199 196 207 208 202 202 192 186 184 184 192 209 213 211 210 211 202 192 188 176 170 172 178 198 201 226 215 222 219 243 280 284 270 304 295 295 294 288 279 274 275 266
208 199 200 203 207 221 217 198 182 183 187 187 200 222 227 212 215 211 205 192 180 180 188 189 203 212 227 218 208 210 196 202 283 278 223 282 279 278 278 271 276 274 270
202 212 215 206 217 229 214 200 190 179 191 195 198 204 218 211 197 196 208 205 211 213 197 189 199 213 211 207 191 207 209 205 229 239 167 268 284 278 279 281 277 272 269
210 214 222 218 222 241 222 208 199 187 194 203 205 204 201 212 213 195 192 210 233 234 222 209 204 212 212 204 195 200 207 218 260 258 159 232 272 274 297 296 282 269 272
221 223 220 217 221 242 229 215 194 188 208 219 220 212 204 212 223 206 188 206 237 261 255 236 231 232 228 218 197 154 162 171 251 259 199 190 254 286 299 290 290 295 287
226 222 224 220 223 233 236 222 199 186 207 225 239 240 229 223 225 210 198 201 224 240 235 240 241 250 238 223 210 191 186 190 204 244 223 175 215 223 306 294 302 323 307